• In Deutschland
  • Länderverzeichnis
  • Für 7 Tage
  • Wassertemperatur
  • Satellitenkarten
  • Wetterkarte
  • Widgets
  • user-avatar
    Anmelden

    Stündliche Wetter Innsbruck

    Heute, 21 Februar, Mittwoch

    Zeit Temperatur Niederschläge Wind Luftdruck Luftfeuchtigkeit
    00:00 -14°C° 0,1 mm 1 m/S 586 mmHg 95%
    01:00 -14°C° 0,1 mm 1 m/S 586 mmHg 94%
    02:00 -15°C° 0,1 mm 1 m/S 586 mmHg 94%
    03:00 -15°C° 0,1 mm 1 m/S 585 mmHg 94%
    04:00 -15°C° 0,1 mm 1 m/S 585 mmHg 93%
    05:00 -15°C° 0,1 mm 1 m/S 585 mmHg 93%
    06:00 -16°C° 0,1 mm 1 m/S 585 mmHg 93%
    07:00 -16°C° 0,1 mm 1 m/S 585 mmHg 93%
    08:00 -14°C° 0,1 mm 1 m/S 586 mmHg 91%
    09:00 -14°C° 0,1 mm 2 m/S 587 mmHg 89%
    10:00 -13°C° 0,1 mm 2 m/S 588 mmHg 87%
    11:00 -12°C° 0,1 mm 2 m/S 588 mmHg 86%
    12:00 -10°C° 0,1 mm 2 m/S 588 mmHg 85%
    13:00 -9°C° 0,1 mm 2 m/S 588 mmHg 83%
    14:00 -9°C° 0,2 mm 2 m/S 588 mmHg 85%
    15:00 -9°C° 0,2 mm 2 m/S 588 mmHg 86%
    16:00 -9°C° 0,2 mm 2 m/S 587 mmHg 87%
    17:00 -10°C° 0,2 mm 2 m/S 587 mmHg 90%
    18:00 -12°C° 0,2 mm 2 m/S 587 mmHg 92%
    19:00 -13°C° 0,2 mm 2 m/S 586 mmHg 94%
    20:00 -14°C° 0,1 mm 2 m/S 586 mmHg 94%
    21:00 -12°C° 0,1 mm 1 m/S 586 mmHg 94%
    22:00 -13°C° 0,1 mm 1 m/S 586 mmHg 94%
    23:00 -14°C° 0,1 mm 1 m/S 586 mmHg 94%

    Morgen, 22 Februar, Donnerstag

    Zeit Temperatur Niederschläge Wind Luftdruck Luftfeuchtigkeit
    00:00 -14°C° 0,1 mm 1 m/S 585 mmHg 94%
    01:00 -14°C° 0,1 mm 1 m/S 585 mmHg 93%
    02:00 -14°C° 0,1 mm 1 m/S 585 mmHg 93%
    03:00 -15°C° 0,1 mm 1 m/S 584 mmHg 92%
    04:00 -15°C° 0,1 mm 1 m/S 584 mmHg 92%
    05:00 -14°C° 0,1 mm 1 m/S 584 mmHg 92%
    06:00 -14°C° 0,1 mm 1 m/S 584 mmHg 91%
    07:00 -14°C° 0,1 mm 1 m/S 584 mmHg 91%
    08:00 -13°C° 0,1 mm 1 m/S 584 mmHg 90%
    09:00 -11°C° 0,1 mm 1 m/S 585 mmHg 89%
    10:00 -12°C° 0,1 mm 2 m/S 586 mmHg 87%
    11:00 -10°C° 0,1 mm 2 m/S 586 mmHg 87%
    12:00 -9°C° 0,1 mm 2 m/S 586 mmHg 87%
    13:00 -8°C° 0,1 mm 2 m/S 586 mmHg 86%
    14:00 -8°C° 0,1 mm 2 m/S 586 mmHg 87%
    15:00 -8°C° 0,1 mm 2 m/S 586 mmHg 88%
    16:00 -8°C° 0,1 mm 2 m/S 586 mmHg 88%
    17:00 -9°C° 0,1 mm 2 m/S 586 mmHg 90%
    18:00 -9°C° 0,1 mm 1 m/S 586 mmHg 92%
    19:00 -10°C° 0,1 mm 1 m/S 585 mmHg 94%
    20:00 -11°C° 0,1 mm 1 m/S 585 mmHg 94%
    21:00 -12°C° 0,1 mm 1 m/S 585 mmHg 93%
    22:00 -12°C° 0,1 mm 1 m/S 585 mmHg 93%
    23:00 -12°C° 0 mm 1 m/S 585 mmHg 92%

    übermorgen, 23 Februar, Freitag

    Zeit Temperatur Niederschläge Wind Luftdruck Luftfeuchtigkeit
    00:00 -13°C° 0 mm 1 m/S 585 mmHg 92%
    01:00 -13°C° 0 mm 1 m/S 584 mmHg 91%
    02:00 -13°C° 0 mm 1 m/S 584 mmHg 90%
    03:00 -13°C° 0 mm 1 m/S 584 mmHg 89%
    04:00 -13°C° 0 mm 1 m/S 584 mmHg 89%
    05:00 -13°C° 0 mm 1 m/S 584 mmHg 88%
    06:00 -13°C° 0 mm 1 m/S 584 mmHg 88%
    07:00 -13°C° 0 mm 1 m/S 584 mmHg 88%
    08:00 -11°C° 0 mm 1 m/S 585 mmHg 87%
    09:00 -10°C° 0 mm 1 m/S 586 mmHg 85%
    10:00 -8°C° 0 mm 1 m/S 587 mmHg 84%
    11:00 -7°C° 0,1 mm 1 m/S 587 mmHg 85%
    12:00 -6°C° 0,1 mm 1 m/S 587 mmHg 86%
    13:00 -4°C° 0,1 mm 1 m/S 588 mmHg 88%
    14:00 -4°C° 0,1 mm 1 m/S 588 mmHg 88%
    15:00 -4°C° 0,1 mm 1 m/S 588 mmHg 89%
    16:00 -4°C° 0,1 mm 1 m/S 588 mmHg 89%
    17:00 -6°C° 0 mm 1 m/S 587 mmHg 91%
    18:00 -7°C° 0 mm 1 m/S 587 mmHg 92%
    19:00 -9°C° 0 mm 1 m/S 587 mmHg 94%
    20:00 -9°C° 0 mm 1 m/S 587 mmHg 92%
    21:00 -9°C° 0 mm 1 m/S 587 mmHg 90%
    22:00 -9°C° 0 mm 1 m/S 587 mmHg 88%
    23:00 -9°C° 0 mm 1 m/S 587 mmHg 86%

    24 Februar, Samstag

    Zeit Temperatur Niederschläge Wind Luftdruck Luftfeuchtigkeit
    00:00 -9°C° 0 mm 1 m/S 587 mmHg 85%
    01:00 -9°C° 0 mm 1 m/S 587 mmHg 83%
    02:00 -9°C° 0 mm 1 m/S 587 mmHg 83%
    03:00 -10°C° 0 mm 2 m/S 587 mmHg 82%
    04:00 -10°C° 0 mm 2 m/S 587 mmHg 82%
    05:00 -9°C° 0 mm 1 m/S 587 mmHg 82%
    06:00 -9°C° 0 mm 1 m/S 587 mmHg 83%
    07:00 -9°C° 0 mm 1 m/S 587 mmHg 83%
    08:00 -7°C° 0 mm 1 m/S 588 mmHg 84%
    09:00 -4°C° 0 mm 1 m/S 589 mmHg 86%
    10:00 -3°C° 0 mm 1 m/S 590 mmHg 87%
    11:00 -2°C° 0 mm 1 m/S 590 mmHg 89%
    12:00 -2°C° 0 mm 1 m/S 590 mmHg 92%
    13:00 -1°C° 0 mm 1 m/S 590 mmHg 94%
    14:00 -2°C° 0,1 mm 1 m/S 590 mmHg 94%
    15:00 -2°C° 0,1 mm 1 m/S 590 mmHg 94%
    16:00 -2°C° 0,1 mm 1 m/S 589 mmHg 94%
    17:00 -3°C° 0,1 mm 1 m/S 589 mmHg 95%
    18:00 -4°C° 0,1 mm 1 m/S 589 mmHg 95%
    19:00 -6°C° 0,1 mm 1 m/S 589 mmHg 96%
    20:00 -7°C° 0,1 mm 1 m/S 589 mmHg 96%
    21:00 -7°C° 0,1 mm 1 m/S 589 mmHg 96%
    22:00 -8°C° 0,1 mm 1 m/S 589 mmHg 96%
    23:00 -8°C° 0,1 mm 1 m/S 589 mmHg 96%

    25 Februar, Sonntag

    Zeit Temperatur Niederschläge Wind Luftdruck Luftfeuchtigkeit
    00:00 -9°C° 0,1 mm 1 m/S 589 mmHg 96%
    01:00 -9°C° 0,1 mm 1 m/S 588 mmHg 96%
    02:00 -10°C° 0,2 mm 1 m/S 588 mmHg 96%
    03:00 -10°C° 0,2 mm 1 m/S 588 mmHg 95%
    04:00 -11°C° 0,2 mm 1 m/S 588 mmHg 95%
    05:00 -13°C° 0,1 mm 2 m/S 587 mmHg 95%
    06:00 -14°C° 0,1 mm 2 m/S 587 mmHg 95%
    07:00 -15°C° 0,1 mm 2 m/S 587 mmHg 94%
    08:00 -14°C° 0,1 mm 2 m/S 588 mmHg 93%
    09:00 -14°C° 0,1 mm 2 m/S 588 mmHg 91%
    10:00 -14°C° 0,1 mm 3 m/S 589 mmHg 90%
    11:00 -14°C° 0,1 mm 3 m/S 589 mmHg 88%
    12:00 -14°C° 0,1 mm 3 m/S 589 mmHg 87%
    13:00 -14°C° 0,1 mm 3 m/S 589 mmHg 85%
    14:00 -15°C° 0,1 mm 3 m/S 588 mmHg 85%
    15:00 -16°C° 0,1 mm 3 m/S 588 mmHg 85%
    16:00 -16°C° 0,1 mm 3 m/S 588 mmHg 86%
    17:00 -18°C° 0 mm 3 m/S 588 mmHg 88%
    18:00 -19°C° 0 mm 2 m/S 587 mmHg 90%
    19:00 -21°C° 0 mm 2 m/S 587 mmHg 93%
    20:00 -23°C° 0 mm 2 m/S 587 mmHg 93%
    21:00 -24°C° 0 mm 2 m/S 586 mmHg 93%
    22:00 -22°C° 0 mm 1 m/S 586 mmHg 93%
    23:00 -23°C° 0 mm 1 m/S 586 mmHg 91%

    26 Februar, Montag

    Zeit Temperatur Niederschläge Wind Luftdruck Luftfeuchtigkeit
    00:00 -24°C° 0 mm 1 m/S 585 mmHg 90%
    01:00 -24°C° 0 mm 1 m/S 585 mmHg 88%
    02:00 -25°C° 0 mm 1 m/S 585 mmHg 85%
    03:00 -25°C° 0 mm 1 m/S 584 mmHg 82%
    04:00 -25°C° 0 mm 1 m/S 584 mmHg 79%
    05:00 -27°C° 0 mm 1 m/S 584 mmHg 78%
    06:00 -27°C° 0 mm 1 m/S 584 mmHg 77%
    07:00 -27°C° 0 mm 1 m/S 584 mmHg 75%
    08:00 -27°C° 0 mm 2 m/S 585 mmHg 74%
    09:00 -24°C° 0 mm 2 m/S 586 mmHg 72%
    10:00 -21°C° 0 mm 2 m/S 587 mmHg 70%
    11:00 -20°C° 0 mm 2 m/S 587 mmHg 70%
    12:00 -19°C° 0 mm 2 m/S 587 mmHg 70%
    13:00 -19°C° 0 mm 3 m/S 587 mmHg 70%
    14:00 -19°C° 0 mm 3 m/S 587 mmHg 73%
    15:00 -19°C° 0 mm 3 m/S 587 mmHg 76%
    16:00 -21°C° 0 mm 3 m/S 586 mmHg 79%
    17:00 -20°C° 0 mm 2 m/S 586 mmHg 83%
    18:00 -23°C° 0 mm 2 m/S 585 mmHg 88%
    19:00 -22°C° 0 mm 1 m/S 584 mmHg 92%
    20:00 -23°C° 0 mm 1 m/S 584 mmHg 92%
    21:00 -24°C° 0 mm 1 m/S 584 mmHg 92%
    22:00 -24°C° 0 mm 1 m/S 583 mmHg 92%
    23:00 -25°C° 0 mm 1 m/S 583 mmHg 90%
    Mehr zeigen